Regional Weather Roundup
Issued by NWS Goodland, KS

Home | Current Version | Previous Version | Graphics & Text | Print | Product List | Glossary On
Versions: 1 2 3 4 5 6 7 8 9 10 11 12 13 14 15 16 17 18 19 20 21 22 23 24 25 26 27 28 29 30 31 32 33 34 35 36 37 38 39 40 41 42 43 44 45 46 47 48 49 50
000
ASUS43 KGLD 211208
RWRGLD

GOODLAND FORECAST AREA HOURLY WEATHER ROUNDUP
NATIONAL WEATHER SERVICE GOODLAND KS
600 AM MDT THU AUG 21 2014

...OFFICIAL OBSERVATIONS...

CITY           SKY/WX    TMP DP  RH WIND       PRES   REMARKS
GOODLAND KS    PTCLDY    64  58  80 N7        29.91S
HILL CITY KS   MOCLDY    74  67  78 S5        29.82R
IMPERIAL NEB   PTCLDY    65  61  87 N5        29.90R
MCCOOK NEB     PTCLDY    69  61  75 N9        29.84S
AKRON CO       MOCLDY    63  57  81 NW13      30.01R
BURLINGTON CO  PTCLDY    62  55  77 NW7       29.95R
LIMON CO       CLEAR     56  54  93 W6        30.06R
$$

...UNOFFICIAL OBSERVATIONS...

CITY           SKY/WX    TMP DP  RH WIND       PRES   REMARKS
COLBY KS       CLEAR     66  64  94 W3        29.90R
LENORA KS        N/A     75  32  20 CALM        N/A
NORTON KS      CLEAR     70  63  78 CALM      29.82
SHARON SPRINGS   N/A     65  57  75 N5          N/A
WAKEENEY KS      N/A     77  59  53 MISG        N/A
KIT CARSON CO    N/A     64  55  72 MISG        N/A
YUMA CO          N/A     63  58  83 NW8         N/A
$$


USA.gov is the U.S. government's official web portal to all federal, state and local government web resources and services.